Location: Michelbach Markt
(48.1000°N, 15.7500°E)
Time: 23:51:37
(UTC+01:00)

N. Korean satellite - Visible Passes

Search period start: 20 January 2022 00:00
Search period end: 30 January 2022 00:00
Orbit: 446 x 491 km, 97.3° (Epoch: 19 January)

Date Brightness Start Highest point End Pass type
(mag) Time Alt. Az. Time Alt. Az. Time Alt. Az.
20 Jan 7.9 05:01:46 10° NNE 05:04:11 36° NE 05:04:11 36° NE visible
20 Jan 8.3 06:36:06 10° NNW 06:38:05 14° WNW 06:38:15 14° WNW visible
20 Jan 9.6 17:12:53 10° SW 17:15:25 19° W 17:17:59 10° NW visible
21 Jan 9.0 04:33:03 10° NE 04:35:05 21° ENE 04:35:05 21° ENE visible
21 Jan 7.5 06:06:06 10° N 06:09:09 27° WNW 06:09:09 27° WNW visible
22 Jan 9.9 04:05:15 10° ENE 04:05:59 11° ENE 04:05:59 11° ENE visible
22 Jan 6.6 05:36:36 10° N 05:40:04 57° WNW 05:40:04 57° WNW visible
23 Jan 7.0 05:07:26 10° NNE 05:10:57 62° E 05:10:57 62° E visible
23 Jan 8.4 06:42:07 10° NW 06:43:43 13° WNW 06:45:00 11° W visible
23 Jan 9.7 17:18:49 10° SW 17:21:07 17° W 17:23:27 10° NW visible
24 Jan 8.6 04:38:34 10° NE 04:41:45 28° E 04:41:51 28° E visible
24 Jan 7.7 06:11:50 10° NNW 06:14:48 24° WNW 06:15:54 20° W visible
25 Jan 9.7 04:10:24 10° ENE 04:12:20 14° E 04:12:44 14° E visible
25 Jan 6.7 05:42:13 10° N 05:45:45 49° WNW 05:46:48 36° WSW visible
26 Jan 6.7 05:12:55 10° NNE 05:16:35 73° ESE 05:17:41 42° S visible
26 Jan 8.6 06:48:06 10° NW 06:49:10 11° WNW 06:50:13 10° WNW visible
26 Jan 9.8 17:24:38 10° SW 17:26:40 15° W 17:28:42 10° NW visible
27 Jan 8.3 04:43:56 10° NNE 04:47:15 32° E 04:48:35 24° SE visible
27 Jan 7.8 06:17:26 10° NNW 06:20:13 21° WNW 06:22:39 12° WSW visible
28 Jan 9.5 04:15:31 10° NE 04:17:48 16° E 04:19:29 12° ESE visible
28 Jan 6.9 05:47:40 10° N 05:51:09 42° WNW 05:53:33 17° SW visible
29 Jan 6.5 05:18:16 10° NNE 05:21:56 85° ESE 05:24:28 19° SSW visible
29 Jan 9.9 17:30:22 10° WSW 17:32:01 13° W 17:33:43 10° WNW visible
